Location: Lincolnton
(35.4660°N, 81.2500°W)
Time: 06:25:06
(UTC-04:00)

Hubble Space Telescope - Visible Passes

Search period start: 05 September 2015 00:00
Search period end: 15 September 2015 00:00
Orbit: 541 x 545 km, 28.5° (Epoch: 04 September)

Date Brightness Start Highest point End Pass type
(mag) Time Alt. Az. Time Alt. Az. Time Alt. Az.
05 Sep 2.4 05:44:51 18° SSW 05:46:32 23° SSE 05:49:50 10° ESE visible
06 Sep 2.2 05:36:26 23° SSW 05:37:31 25° S 05:40:58 10° ESE visible
07 Sep 2.0 05:28:01 27° S 05:28:30 28° S 05:32:04 10° ESE visible
08 Sep 1.9 05:19:36 29° S 05:19:36 29° S 05:23:07 10° ESE visible
09 Sep 2.1 05:11:13 28° SSE 05:11:13 28° SSE 05:14:08 10° ESE visible
10 Sep 2.4 05:02:52 24° SE 05:02:52 24° SE 05:05:08 10° ESE visible
11 Sep 2.9 04:54:35 19° SE 04:54:35 19° SE 04:56:06 10° ESE visible
11 Sep 2.5 06:30:16 10° WSW 06:33:17 19° SSW 06:36:15 10° SSE visible
12 Sep 3.3 04:46:20 14° SE 04:46:20 14° SE 04:47:02 10° SE visible
12 Sep 2.7 06:21:48 11° SW 06:24:13 16° SSW 06:26:49 10° SSE visible
13 Sep 2.8 06:13:39 12° SW 06:15:10 14° SSW 06:17:12 10° S visible
14 Sep 3.0 06:05:34 11° SSW 06:06:05 11° SSW 06:07:06 10° S visible
